World > North America > United States > Michigan

Hourly Wequetonsing, MI Regional Weather

Feedback E-mail the Weather

Quick WX

Wequetonsing, MI Weather Maps

°F °C°F °C
Wequetonsing Weather Map
UTC Time: 7/2/2022, 18:19
Your Time:

Wequetonsing, MI Regional Weather

Expires:202207021900;;562725
ASUS43 KDTX 021810
RWRMI 
MICHIGAN HOURLY REGIONAL WEATHER ROUNDUP
NATIONAL WEATHER SERVICE DETROIT/PONTIAC MI
200 PM EDT SAT JUL 02 2022

NOTE: "FAIR" INDICATES FEW OR NO CLOUDS BELOW 12,000 FEET WITH NO
SIGNIFICANT WEATHER AND/OR OBSTRUCTION TO VISIBILITY.


MIZ016>042-021900-
NORTHERN LOWER MICHIGAN
  
CITY           SKY/WX    TMP DP  RH WIND       PRES   REMARKS
ALPENA         SUNNY     74  39  28 W13G25    29.97S                  
6HR MIN TEMP:  64; 6HR MAX TEMP:  76;                                

BEAVER ISLAND  SUNNY     69  38  31 W13       30.02R                  
6HR MIN TEMP:  60; 6HR MAX TEMP:  70;                                

BELLAIRE       MOSUNNY   72  42  33 W6        30.03R                  
6HR MIN TEMP:  65; 6HR MAX TEMP:  73;                                

CADILLAC       SUNNY     77  45  31 W12G20    30.03S                  
6HR MIN TEMP:  60; 6HR MAX TEMP:  78;                                

CHARLEVOIX     MOSUNNY   69  45  42 W12       30.03S                  
6HR MIN TEMP:  61; 6HR MAX TEMP:  69;                                

FRANKFORT      SUNNY     73  40  30 W6        30.04S                  
GAYLORD        MOSUNNY   71  38  29 W10G26    30.02R                  
6HR MIN TEMP:  62; 6HR MAX TEMP:  72; 6HR PCP: TRACE;                

GRAYLING       MOSUNNY   75  46  35 NW10G22   30.01S                  
HARBOR SPRINGS MOSUNNY   65  52  62 W8        30.02R                  
HOUGHTON LAKE  SUNNY     77  42  28 W13G21    30.02S                  
6HR MIN TEMP:  63; 6HR MAX TEMP:  77;                                

MANISTEE       SUNNY     73  47  39 W8        30.04S                  
OSCODA         SUNNY     81  40  23 NW18      29.97R                  
6HR MIN TEMP:  65; 6HR MAX TEMP:  81;                                

PELLSTON       MOSUNNY   70  41  34 W15G23    30.01R                  
6HR MIN TEMP:  62; 6HR MAX TEMP:  71;                                

ROGERS CITY    MOSUNNY   68  46  44 NW10      29.99S                  
TRAVERSE CITY  MOSUNNY   78  42  27 NW15G23   30.01R                  
6HR MIN TEMP:  65; 6HR MAX TEMP:  79;                                

$$

SKY/WX - Weather  TMP - Temperature  DP - Dew Point  RH - Humidity
WIND - Wind Direction/Speed PRES - Barometric Pressure VSB - Visibility
WCI - Wind Chill Index E13G22 Wind - East Wind 13 mph/Gusts of 22 mph

Trending Headlines

Wequetonsing Radar Loop



Wequetonsing Quick Facts


National Two Day Weather Forecast


E-mail the Wequetonsing Weather Forecast

Voice your opinion or tell us about page issues...